Hourly Data Report for October 28, 2014

All times are specified in Local Standard Time (LST). Add 1 hour to adjust for Daylight Saving Time where and when it is observed.

CAPE DORSET A
NUNAVUT

64°13'49.000" N
76°31'30.000" W
48.20 m
2400637
71366
YTE

Download Data

Hourly Data (October 2014)
Hourly Data Report for October 28, 2014
Temp Definition
°C
Dew Point Temp Definition
°C
Rel Hum Definition
%
Wind Dir Definition
10's deg

Wind Spd Definition
km/h
Visibility Definition
km
Stn Press Definition
kPa
Hmdx Definition


Wind Chill Definition


Weather Definition


TIME
00:00 Legend Double Dagger 0.0 LegendMM LegendMM 23 11 2.8 99.99   -4 Rain
01:00 Legend Double Dagger -0.1 LegendMM LegendMM   0 4.8 100.01     Rain,Snow
02:00 Legend Double Dagger -0.1 LegendMM LegendMM   0 9.7 100.03     Snow
03:00 Legend Double Dagger -0.3 LegendMM LegendMM 24 8 1.6 100.05   -3 Snow
04:00 Legend Double Dagger -0.4 LegendMM LegendMM 25 11 6.4 100.03   -4 Snow
05:00 Legend Double Dagger -0.5 LegendMM LegendMM 26 11 14.5 100.05   -4 Snow
06:00 Legend Double Dagger -0.9 LegendMM LegendMM 29 13 16.1 100.06   -5 LegendNANA
07:00 Legend Double Dagger -1.3 -1.9 96 29 9 16.1 100.09   -5 LegendNANA
08:00 Legend Double Dagger -1.4 -2.2 94 28 11 16.1 100.14   -5 LegendNANA
09:00 Legend Double Dagger -1.3 -2.7 90 28 9 16.1 100.17   -5 LegendNANA
10:00 Legend Double Dagger -1.4 -2.8 90 30 15 16.1 100.20   -6 LegendNANA
11:00 Legend Double Dagger -1.6 -3.0 90 29 15 16.1 100.24   -6 LegendNANA
12:00 Legend Double Dagger -1.9 -3.2 91 29 18 16.1 100.26   -7 LegendNANA
13:00 Legend Double Dagger -2.2 -3.6 90 29 17 16.1 100.31   -8 LegendNANA
14:00 Legend Double Dagger -2.4 -3.9 90 28 17 16.1 100.35   -8 Snow
15:00 Legend Double Dagger -2.9 -4.6 88 30 26 16.1 100.38   -10 LegendNANA
16:00 Legend Double Dagger -3.2 -5.1 87 29 18 16.1 100.43   -9 Snow
17:00 Legend Double Dagger -3.5 -5.1 89 29 22 16.1 100.48   -10 Snow
18:00 Legend Double Dagger -4.0 -5.9 87 29 21 16.1 100.51   -10 LegendNANA
19:00 Legend Double Dagger -4.5 -6.5 86 28 13 16.1 100.51   -10 LegendNANA
20:00 Legend Double Dagger -4.2 -5.6 90 28 17 16.1 100.49   -10 LegendNANA
21:00 Legend Double Dagger -4.1 -5.4 91 28 15 16.1 100.50   -9 LegendNANA
22:00 Legend Double Dagger -4.2 -5.9 88 29 15 16.1 100.52   -10 LegendNANA
23:00 Legend Double Dagger -4.3 -6.5 85 29 17 16.1 100.53   -10 LegendNANA

Notes on Data Quality.

Legend

  • E = Estimated
  • M = Missing
  • NA = Not Available
  • ‡ = Partner data that is not subject to review by the National Climate Archives
Date modified: